User: anonymous   Login
Location: Wawayanda State Park
(41.1833°N, 74.4333°W)
Time: 17:04:51
(UTC-04:00)
Language:

RESURS DK-1 - Orbit

View from above orbital plane
View from above orbital plane
View from above satellite
View from above satellite

Ground track
Ground track

The orbit data is extracted from the following two-line orbital elements,

1 29228U 06021A   16236.50159711  .00000176  00000-0  20774-4 0  9997
2 29228  69.9361 135.3523 0001793  55.3154 304.8175 15.01963849563406
Epoch (UTC): 23 August 2016 12:02:17
Eccentricity: 0.0001793
inclination: 69.9361°
perigee height: 559 km
apogee height: 562 km
right ascension of ascending node: 135.3523°
argument of perigee: 55.3154°
revolutions per day: 15.01963849
mean anomaly at epoch: 304.8175°
orbit number at epoch: 56340

The dashed part of the orbit path shows where the satellite is in the earth's shadow,  

DLR